TimeCDT,TemperatureF,Dew PointF,Humidity,Sea Level PressureIn,VisibilityMPH,Wind Direction,Wind SpeedMPH,Gust SpeedMPH,PrecipitationIn,Events,Conditions,WindDirDegrees,DateUTC
12:15 AM,50.0,50.0,100,30.21,10.0,Calm,Calm,-,N/A,,Clear,0,2012-10-11 05:15:00
12:35 AM,51.8,50.0,94,30.21,10.0,Calm,Calm,-,N/A,,Clear,0,2012-10-11 05:35:00
12:55 AM,50.0,48.2,94,30.21,10.0,Calm,Calm,-,N/A,,Clear,0,2012-10-11 05:55:00
1:15 AM,50.0,50.0,100,30.21,10.0,North,3.5,-,N/A,,Clear,350,2012-10-11 06:15:00
1:35 AM,50.0,48.2,94,30.20,10.0,Calm,Calm,-,N/A,,Clear,0,2012-10-11 06:35:00
1:55 AM,50.0,48.2,94,30.20,10.0,Calm,Calm,-,N/A,,Clear,0,2012-10-11 06:55:00
2:15 AM,50.0,48.2,94,30.20,10.0,Calm,Calm,-,N/A,,Clear,0,2012-10-11 07:15:00
2:35 AM,50.0,50.0,100,30.20,10.0,Calm,Calm,-,N/A,,Clear,0,2012-10-11 07:35:00
2:55 AM,50.0,50.0,100,30.20,10.0,Calm,Calm,-,N/A,,Clear,0,2012-10-11 07:55:00
3:15 AM,50.0,48.2,94,30.20,10.0,NNW,3.5,-,N/A,,Clear,340,2012-10-11 08:15:00
3:35 AM,50.0,48.2,94,30.19,10.0,Calm,Calm,-,N/A,,Clear,0,2012-10-11 08:35:00
3:55 AM,48.2,46.4,93,30.19,10.0,Calm,Calm,-,N/A,,Clear,0,2012-10-11 08:55:00
4:15 AM,48.2,46.4,93,30.19,10.0,Calm,Calm,-,N/A,,Clear,0,2012-10-11 09:15:00
4:35 AM,46.4,46.4,100,30.20,7.0,Calm,Calm,-,N/A,,Clear,0,2012-10-11 09:35:00
4:55 AM,46.4,46.4,100,30.21,10.0,Calm,Calm,-,N/A,,Clear,0,2012-10-11 09:55:00
5:15 AM,46.4,46.4,100,30.20,7.0,Calm,Calm,-,N/A,,Clear,0,2012-10-11 10:15:00
5:35 AM,44.6,44.6,100,30.20,7.0,Calm,Calm,-,N/A,,Clear,0,2012-10-11 10:35:00
5:55 AM,46.4,44.6,93,30.21,7.0,Calm,Calm,-,N/A,,Clear,0,2012-10-11 10:55:00
6:15 AM,46.4,44.6,93,30.22,7.0,Calm,Calm,-,N/A,,Clear,0,2012-10-11 11:15:00
6:35 AM,44.6,44.6,100,30.23,7.0,Calm,Calm,-,N/A,,Clear,0,2012-10-11 11:35:00
6:55 AM,46.4,46.4,100,30.24,10.0,Calm,Calm,-,N/A,,Clear,0,2012-10-11 11:55:00
7:15 AM,46.4,44.6,93,30.25,10.0,Calm,Calm,-,N/A,,Clear,0,2012-10-11 12:15:00
7:35 AM,46.4,46.4,100,30.25,7.0,Calm,Calm,-,N/A,,Clear,0,2012-10-11 12:35:00
7:55 AM,48.2,48.2,100,30.25,10.0,Calm,Calm,-,N/A,,Clear,0,2012-10-11 12:55:00
8:15 AM,51.8,50.0,94,30.26,10.0,Calm,Calm,-,N/A,,Clear,0,2012-10-11 13:15:00
8:35 AM,53.6,50.0,88,30.25,10.0,Calm,Calm,-,N/A,,Scattered Clouds,0,2012-10-11 13:35:00
8:55 AM,55.4,51.8,88,30.25,10.0,Calm,Calm,-,N/A,,Scattered Clouds,0,2012-10-11 13:55:00
9:35 AM,59.0,53.6,82,30.27,10.0,Calm,Calm,-,N/A,,Overcast,0,2012-10-11 14:35:00
9:55 AM,60.8,53.6,77,30.28,10.0,Calm,Calm,-,N/A,,Overcast,0,2012-10-11 14:55:00
10:15 AM,60.8,53.6,77,30.28,10.0,ESE,3.5,-,N/A,,Overcast,110,2012-10-11 15:15:00
10:35 AM,62.6,55.4,77,30.28,10.0,SSE,3.5,-,N/A,,Overcast,150,2012-10-11 15:35:00
10:55 AM,64.4,55.4,73,30.27,10.0,SE,4.6,-,N/A,,Overcast,130,2012-10-11 15:55:00
11:15 AM,66.2,55.4,68,30.27,10.0,SE,3.5,-,N/A,,Mostly Cloudy,130,2012-10-11 16:15:00
11:35 AM,68.0,57.2,68,30.26,10.0,SSE,4.6,-,N/A,,Clear,160,2012-10-11 16:35:00
12:35 PM,71.6,59.0,64,30.24,10.0,SSE,6.9,-,N/A,,Clear,150,2012-10-11 17:35:00
12:55 PM,73.4,59.0,61,30.24,10.0,Calm,Calm,-,N/A,,Scattered Clouds,0,2012-10-11 17:55:00
1:15 PM,73.4,60.8,65,30.24,10.0,South,4.6,-,N/A,,Mostly Cloudy,180,2012-10-11 18:15:00
1:35 PM,73.4,60.8,65,30.22,10.0,Calm,Calm,-,N/A,,Overcast,0,2012-10-11 18:35:00
1:55 PM,73.4,60.8,65,30.22,10.0,Calm,Calm,-,N/A,,Overcast,0,2012-10-11 18:55:00
2:15 PM,73.4,60.8,65,30.22,10.0,Calm,Calm,-,N/A,,Overcast,0,2012-10-11 19:15:00
2:35 PM,73.4,62.6,69,30.22,10.0,Calm,Calm,-,N/A,,Overcast,0,2012-10-11 19:35:00
2:55 PM,73.4,62.6,69,30.21,10.0,Calm,Calm,-,N/A,,Overcast,0,2012-10-11 19:55:00
3:35 PM,77.0,62.6,61,30.20,10.0,South,5.8,-,N/A,,Clear,170,2012-10-11 20:35:00
3:55 PM,77.0,62.6,61,30.20,10.0,Calm,Calm,-,N/A,,Clear,0,2012-10-11 20:55:00
4:15 PM,77.0,62.6,61,30.20,10.0,Calm,Calm,-,N/A,,Clear,0,2012-10-11 21:15:00
4:55 PM,77.0,64.4,65,30.19,10.0,Calm,Calm,-,N/A,,Clear,0,2012-10-11 21:55:00
5:15 PM,77.0,64.4,65,30.18,10.0,Calm,Calm,-,N/A,,Clear,0,2012-10-11 22:15:00
5:55 PM,71.6,68.0,88,30.19,10.0,Calm,Calm,-,N/A,,Mostly Cloudy,0,2012-10-11 22:55:00
6:15 PM,71.6,66.2,83,30.19,10.0,Calm,Calm,-,N/A,Thunderstorm,Overcast,0,2012-10-11 23:15:00
6:35 PM,69.8,66.2,88,30.19,10.0,Calm,Calm,-,N/A,,Mostly Cloudy,0,2012-10-11 23:35:00
6:55 PM,68.0,64.4,88,30.19,10.0,Calm,Calm,-,N/A,,Scattered Clouds,0,2012-10-11 23:55:00
7:15 PM,66.2,64.4,94,30.20,10.0,Calm,Calm,-,N/A,,Clear,0,2012-10-12 00:15:00
7:35 PM,64.4,62.6,94,30.20,10.0,Calm,Calm,-,N/A,,Clear,0,2012-10-12 00:35:00
8:15 PM,68.0,62.6,83,30.21,10.0,East,4.6,-,N/A,,Clear,100,2012-10-12 01:15:00
8:35 PM,68.0,62.6,83,30.21,10.0,ESE,4.6,-,N/A,,Clear,110,2012-10-12 01:35:00
9:15 PM,62.6,60.8,94,30.22,7.0,Calm,Calm,-,N/A,,Clear,0,2012-10-12 02:15:00
9:55 PM,62.6,60.8,94,30.22,7.0,Calm,Calm,-,N/A,,Clear,0,2012-10-12 02:55:00
10:15 PM,60.8,60.8,100,30.22,5.0,Calm,Calm,-,N/A,,Clear,0,2012-10-12 03:15:00
11:35 PM,60.8,59.0,94,30.22,7.0,Calm,Calm,-,N/A,,Clear,0,2012-10-12 04:35:00
11:55 PM,60.8,60.8,100,30.22,7.0,Calm,Calm,-,N/A,,Clear,0,2012-10-12 04:55:00